Time,TemperatureF,DewpointF,PressureIn,WindDirection,WindDirectionDegrees,WindSpeedMPH,WindSpeedGustMPH,Humidity,HourlyPrecipIn,Conditions,Clouds,dailyrainin,SoftwareType,DateUTC
2013-02-17 00:02:00,27.0,24.0,30.19,SE,135,2.0,2.0,88,-99.99,,,-99.99,,2013-02-17 06:02:00,
2013-02-17 00:11:00,27.0,24.0,30.19,SE,135,2.0,3.0,88,-99.99,,,-99.99,,2013-02-17 06:11:00,
2013-02-17 00:21:00,27.0,24.0,30.19,SSE,157,3.0,4.0,87,-99.99,,,-99.99,,2013-02-17 06:21:00,
2013-02-17 00:31:00,28.0,23.0,30.19,SSE,157,3.0,4.0,84,-99.99,,,-99.99,,2013-02-17 06:31:00,
2013-02-17 00:41:00,28.0,25.0,30.19,SSE,157,3.0,3.0,88,-99.99,,,-99.99,,2013-02-17 06:41:00,
2013-02-17 00:51:00,28.0,24.0,30.19,SSE,157,3.0,4.0,84,-99.99,,,-99.99,,2013-02-17 06:51:00,
2013-02-17 01:01:00,28.0,23.0,30.19,SSE,157,3.0,4.0,84,-99.99,,,-99.99,,2013-02-17 07:01:00,
2013-02-17 01:11:00,28.0,23.0,30.19,SSE,157,3.0,4.0,84,-99.99,,,-99.99,,2013-02-17 07:11:00,
2013-02-17 01:21:00,28.0,23.0,30.18,SSE,157,3.0,4.0,83,-99.99,,,-99.99,,2013-02-17 07:21:00,
2013-02-17 01:31:00,28.0,23.0,30.18,SSE,157,3.0,5.0,84,-99.99,,,-99.99,,2013-02-17 07:31:00,
2013-02-17 01:41:00,27.0,24.0,30.18,SSE,157,3.0,4.0,86,-99.99,,,-99.99,,2013-02-17 07:41:00,
2013-02-17 01:51:00,27.0,24.0,30.18,SSE,157,3.0,4.0,87,-99.99,,,-99.99,,2013-02-17 07:51:00,
2013-02-17 02:01:00,27.0,24.0,30.18,SSE,157,3.0,4.0,88,-99.99,,,-99.99,,2013-02-17 08:01:00,
2013-02-17 02:11:00,27.0,24.0,30.18,SSE,157,3.0,4.0,87,-99.99,,,-99.99,,2013-02-17 08:11:00,
2013-02-17 02:21:00,27.0,24.0,30.18,SSE,157,3.0,4.0,88,-99.99,,,-99.99,,2013-02-17 08:21:00,
2013-02-17 02:31:00,27.0,24.0,30.18,SE,135,3.0,4.0,88,-99.99,,,-99.99,,2013-02-17 08:31:00,
2013-02-17 02:42:00,27.0,24.0,30.18,SSE,157,3.0,4.0,88,-99.99,,,-99.99,,2013-02-17 08:42:00,
2013-02-17 02:52:00,27.0,24.0,30.18,SSE,157,3.0,3.0,88,-99.99,,,-99.99,,2013-02-17 08:52:00,
2013-02-17 03:01:00,27.0,24.0,30.18,SSE,157,2.0,3.0,88,-99.99,,,-99.99,,2013-02-17 09:01:00,
2013-02-17 03:11:00,27.0,24.0,30.18,SSE,157,3.0,3.0,88,-99.99,,,-99.99,,2013-02-17 09:11:00,
2013-02-17 03:21:00,27.0,24.0,30.18,SE,135,3.0,4.0,88,-99.99,,,-99.99,,2013-02-17 09:21:00,
2013-02-17 03:31:00,27.0,24.0,30.17,SE,135,2.0,3.0,87,-99.99,,,-99.99,,2013-02-17 09:31:00,
2013-02-17 03:41:00,27.0,24.0,30.17,SE,135,3.0,4.0,86,-99.99,,,-99.99,,2013-02-17 09:41:00,
2013-02-17 03:51:00,27.0,23.0,30.17,SE,135,3.0,4.0,84,-99.99,,,-99.99,,2013-02-17 09:51:00,
2013-02-17 04:01:00,27.0,22.0,30.17,SE,135,3.0,4.0,81,-99.99,,,-99.99,,2013-02-17 10:01:00,
2013-02-17 04:11:00,28.0,22.0,30.17,ESE,112,3.0,4.0,80,-99.99,,,-99.99,,2013-02-17 10:11:00,
2013-02-17 04:21:00,27.0,24.0,30.17,ESE,112,3.0,5.0,86,-99.99,,,-99.99,,2013-02-17 10:21:00,
2013-02-17 04:31:00,27.0,23.0,30.17,North,0,4.0,6.0,87,-99.99,,,-99.99,,2013-02-17 10:31:00,
2013-02-17 04:41:00,26.0,23.0,30.17,ESE,112,3.0,4.0,87,-99.99,,,-99.99,,2013-02-17 10:41:00,
2013-02-17 04:51:00,26.0,23.0,30.17,ESE,112,4.0,6.0,87,-99.99,,,-99.99,,2013-02-17 10:51:00,
2013-02-17 05:01:00,26.0,23.0,30.17,ESE,112,3.0,4.0,85,-99.99,,,-99.99,,2013-02-17 11:01:00,
2013-02-17 05:11:00,27.0,23.0,30.17,ESE,112,3.0,4.0,86,-99.99,,,-99.99,,2013-02-17 11:11:00,
2013-02-17 05:21:00,27.0,23.0,30.17,ESE,112,3.0,4.0,84,-99.99,,,-99.99,,2013-02-17 11:21:00,
2013-02-17 05:32:00,27.0,22.0,30.17,ESE,112,3.0,5.0,82,-99.99,,,-99.99,,2013-02-17 11:32:00,
2013-02-17 05:41:00,27.0,23.0,30.17,ESE,112,4.0,5.0,83,-99.99,,,-99.99,,2013-02-17 11:41:00,
2013-02-17 05:52:00,27.0,22.0,30.18,SE,135,3.0,5.0,81,-99.99,,,-99.99,,2013-02-17 11:52:00,
2013-02-17 06:03:00,27.0,22.0,30.18,SE,135,4.0,6.0,81,-99.99,,,-99.99,,2013-02-17 12:03:00,
2013-02-17 06:11:00,27.0,22.0,30.17,SE,135,4.0,6.0,82,-99.99,,,-99.99,,2013-02-17 12:11:00,
2013-02-17 06:22:00,27.0,23.0,30.17,SE,135,4.0,6.0,83,-99.99,,,-99.99,,2013-02-17 12:22:00,
2013-02-17 06:32:00,27.0,23.0,30.18,SE,135,3.0,4.0,83,-99.99,,,-99.99,,2013-02-17 12:32:00,
2013-02-17 06:42:00,27.0,22.0,30.18,SE,135,4.0,6.0,82,-99.99,,,-99.99,,2013-02-17 12:42:00,
2013-02-17 06:52:00,27.0,22.0,30.17,ESE,112,4.0,6.0,81,-99.99,,,-99.99,,2013-02-17 12:52:00,
2013-02-17 07:02:00,27.0,22.0,30.16,ESE,112,4.0,6.0,81,-99.99,,,-99.99,,2013-02-17 13:02:00,
2013-02-17 07:12:00,27.0,22.0,30.16,ESE,112,5.0,8.0,83,-99.99,,,-99.99,,2013-02-17 13:12:00,
2013-02-17 07:21:00,27.0,22.0,30.16,ESE,112,6.0,7.0,82,-99.99,,,-99.99,,2013-02-17 13:21:00,
2013-02-17 07:32:00,27.0,22.0,30.16,ESE,112,5.0,7.0,82,-99.99,,,-99.99,,2013-02-17 13:32:00,
2013-02-17 07:41:00,27.0,22.0,30.16,ESE,112,5.0,7.0,81,-99.99,,,-99.99,,2013-02-17 13:41:00,
2013-02-17 07:51:00,27.0,21.0,30.17,SE,135,5.0,8.0,77,-99.99,,,-99.99,,2013-02-17 13:51:00,
2013-02-17 08:01:00,27.0,21.0,30.16,ESE,112,7.0,11.0,76,-99.99,,,-99.99,,2013-02-17 14:01:00,
2013-02-17 08:11:00,27.0,20.0,30.16,ESE,112,7.0,9.0,75,-99.99,,,-99.99,,2013-02-17 14:11:00,
2013-02-17 08:21:00,29.0,20.0,30.16,ESE,112,7.0,11.0,71,-99.99,,,-99.99,,2013-02-17 14:21:00,
2013-02-17 08:32:00,29.0,20.0,30.16,ESE,112,8.0,13.0,68,-99.99,,,-99.99,,2013-02-17 14:32:00,
2013-02-17 08:42:00,30.0,20.0,30.16,SE,135,7.0,12.0,67,-99.99,,,-99.99,,2013-02-17 14:42:00,
2013-02-17 08:52:00,31.0,21.0,30.16,ESE,112,7.0,11.0,66,-99.99,,,-99.99,,2013-02-17 14:52:00,
2013-02-17 09:01:00,31.0,21.0,30.16,SE,135,7.0,12.0,65,-99.99,,,-99.99,,2013-02-17 15:01:00,
2013-02-17 09:11:00,32.0,21.0,30.16,SE,135,9.0,13.0,63,-99.99,,,-99.99,,2013-02-17 15:11:00,
2013-02-17 09:21:00,33.0,21.0,30.15,SE,135,8.0,15.0,63,-99.99,,,-99.99,,2013-02-17 15:21:00,
2013-02-17 09:31:00,33.0,21.0,30.15,SE,135,9.0,13.0,61,-99.99,,,-99.99,,2013-02-17 15:31:00,
2013-02-17 09:41:00,34.0,22.0,30.16,SE,135,8.0,12.0,61,-99.99,,,-99.99,,2013-02-17 15:41:00,
2013-02-17 09:52:00,35.0,22.0,30.16,SE,135,9.0,14.0,59,-99.99,,,-99.99,,2013-02-17 15:52:00,
2013-02-17 10:01:00,36.0,23.0,30.15,SE,135,11.0,17.0,58,-99.99,,,-99.99,,2013-02-17 16:01:00,
2013-02-17 10:11:00,36.0,23.0,30.15,SE,135,9.0,14.0,57,-99.99,,,-99.99,,2013-02-17 16:11:00,
2013-02-17 10:21:00,36.0,22.0,30.15,SE,135,12.0,16.0,56,-99.99,,,-99.99,,2013-02-17 16:21:00,
2013-02-17 10:32:00,37.0,23.0,30.15,SE,135,10.0,14.0,55,-99.99,,,-99.99,,2013-02-17 16:32:00,
2013-02-17 10:41:00,38.0,23.0,30.15,SE,135,11.0,14.0,55,-99.99,,,-99.99,,2013-02-17 16:41:00,
2013-02-17 10:51:00,38.0,23.0,30.15,SE,135,10.0,15.0,54,-99.99,,,-99.99,,2013-02-17 16:51:00,
2013-02-17 11:02:00,39.0,23.0,30.15,SE,135,10.0,16.0,52,-99.99,,,-99.99,,2013-02-17 17:02:00,
2013-02-17 11:11:00,40.0,23.0,30.14,SE,135,11.0,16.0,51,-99.99,,,-99.99,,2013-02-17 17:11:00,
2013-02-17 11:21:00,40.0,23.0,30.14,SE,135,11.0,15.0,50,-99.99,,,-99.99,,2013-02-17 17:21:00,
2013-02-17 11:32:00,41.0,23.0,30.14,SE,135,11.0,14.0,50,-99.99,,,-99.99,,2013-02-17 17:32:00,
2013-02-17 11:41:00,41.0,22.0,30.13,SE,135,11.0,16.0,47,-99.99,,,-99.99,,2013-02-17 17:41:00,
2013-02-17 11:52:00,42.0,23.0,30.12,SE,135,10.0,15.0,47,-99.99,,,-99.99,,2013-02-17 17:52:00,
2013-02-17 12:01:00,42.0,23.0,30.11,SE,135,10.0,17.0,47,-99.99,,,-99.99,,2013-02-17 18:01:00,
2013-02-17 12:11:00,42.0,23.0,30.11,SE,135,10.0,14.0,46,-99.99,,,-99.99,,2013-02-17 18:11:00,
2013-02-17 12:21:00,43.0,23.0,30.10,SE,135,10.0,15.0,45,-99.99,,,-99.99,,2013-02-17 18:21:00,
2013-02-17 12:33:00,43.0,23.0,30.09,SE,135,11.0,16.0,45,-99.99,,,-99.99,,2013-02-17 18:33:00,
2013-02-17 12:42:00,43.0,23.0,30.09,SE,135,11.0,17.0,44,-99.99,,,-99.99,,2013-02-17 18:42:00,
2013-02-17 12:52:00,44.0,24.0,30.08,SE,135,10.0,16.0,44,-99.99,,,-99.99,,2013-02-17 18:52:00,
2013-02-17 13:01:00,44.0,24.0,30.07,SE,135,12.0,17.0,44,-99.99,,,-99.99,,2013-02-17 19:01:00,
2013-02-17 13:11:00,45.0,23.0,30.06,SE,135,11.0,21.0,42,-99.99,,,-99.99,,2013-02-17 19:11:00,
2013-02-17 13:21:00,45.0,24.0,30.06,SE,135,12.0,18.0,43,-99.99,,,-99.99,,2013-02-17 19:21:00,
2013-02-17 13:32:00,45.0,23.0,30.05,SE,135,12.0,16.0,41,-99.99,,,-99.99,,2013-02-17 19:32:00,
2013-02-17 13:41:00,46.0,24.0,30.05,SE,135,11.0,16.0,41,-99.99,,,-99.99,,2013-02-17 19:41:00,
2013-02-17 13:51:00,46.0,24.0,30.04,SE,135,12.0,16.0,42,-99.99,,,-99.99,,2013-02-17 19:51:00,
2013-02-17 14:01:00,46.0,23.0,30.03,SE,135,11.0,20.0,40,-99.99,,,-99.99,,2013-02-17 20:01:00,
2013-02-17 14:11:00,47.0,23.0,30.03,SSE,157,12.0,17.0,39,-99.99,,,-99.99,,2013-02-17 20:11:00,
2013-02-17 14:21:00,47.0,23.0,30.03,SE,135,13.0,20.0,40,-99.99,,,-99.99,,2013-02-17 20:21:00,
2013-02-17 14:32:00,47.0,25.0,30.02,SE,135,12.0,17.0,41,-99.99,,,-99.99,,2013-02-17 20:32:00,
2013-02-17 14:42:00,48.0,24.0,30.02,SE,135,11.0,16.0,39,-99.99,,,-99.99,,2013-02-17 20:42:00,
2013-02-17 14:52:00,48.0,24.0,30.02,SE,135,13.0,21.0,39,-99.99,,,-99.99,,2013-02-17 20:52:00,
2013-02-17 15:01:00,48.0,24.0,30.02,SE,135,11.0,17.0,39,-99.99,,,-99.99,,2013-02-17 21:01:00,
2013-02-17 15:11:00,48.0,25.0,30.01,SE,135,11.0,18.0,40,-99.99,,,-99.99,,2013-02-17 21:11:00,
2013-02-17 15:21:00,48.0,25.0,30.01,SE,135,12.0,17.0,39,-99.99,,,-99.99,,2013-02-17 21:21:00,
2013-02-17 15:31:00,48.0,24.0,30.00,SE,135,11.0,17.0,38,-99.99,,,-99.99,,2013-02-17 21:31:00,
2013-02-17 15:41:00,48.0,25.0,30.00,SE,135,11.0,18.0,40,-99.99,,,-99.99,,2013-02-17 21:41:00,
2013-02-17 15:52:00,49.0,27.0,29.99,SE,135,12.0,17.0,42,-99.99,,,-99.99,,2013-02-17 21:52:00,
2013-02-17 16:01:00,49.0,26.0,29.98,SSE,157,12.0,17.0,42,-99.99,,,-99.99,,2013-02-17 22:01:00,
2013-02-17 16:12:00,48.0,27.0,29.98,SE,135,10.0,14.0,44,-99.99,,,-99.99,,2013-02-17 22:12:00,
2013-02-17 16:21:00,48.0,26.0,29.98,SE,135,10.0,13.0,42,-99.99,,,-99.99,,2013-02-17 22:21:00,
2013-02-17 16:32:00,48.0,26.0,29.97,SE,135,10.0,13.0,42,-99.99,,,-99.99,,2013-02-17 22:32:00,
2013-02-17 16:41:00,48.0,26.0,29.97,SE,135,10.0,13.0,42,-99.99,,,-99.99,,2013-02-17 22:41:00,
2013-02-17 16:52:00,48.0,25.0,29.97,ESE,112,11.0,17.0,40,-99.99,,,-99.99,,2013-02-17 22:52:00,
2013-02-17 17:02:00,47.0,26.0,29.96,ESE,112,8.0,14.0,43,-99.99,,,-99.99,,2013-02-17 23:02:00,
2013-02-17 17:11:00,46.0,25.0,29.96,ESE,112,11.0,15.0,43,-99.99,,,-99.99,,2013-02-17 23:11:00,
2013-02-17 17:21:00,45.0,25.0,29.96,ESE,112,9.0,13.0,45,-99.99,,,-99.99,,2013-02-17 23:21:00,
2013-02-17 17:32:00,44.0,24.0,29.95,ESE,112,11.0,14.0,45,-99.99,,,-99.99,,2013-02-17 23:32:00,
2013-02-17 17:42:00,44.0,25.0,29.95,ESE,112,10.0,14.0,47,-99.99,,,-99.99,,2013-02-17 23:42:00,
2013-02-17 17:52:00,43.0,25.0,29.95,ESE,112,9.0,14.0,48,-99.99,,,-99.99,,2013-02-17 23:52:00,
2013-02-17 18:01:00,43.0,25.0,29.95,ESE,112,9.0,13.0,50,-99.99,,,-99.99,,2013-02-18 00:01:00,
2013-02-17 18:11:00,42.0,25.0,29.95,SE,135,8.0,13.0,51,-99.99,,,-99.99,,2013-02-18 00:11:00,
2013-02-17 18:22:00,41.0,25.0,29.95,ESE,112,8.0,12.0,52,-99.99,,,-99.99,,2013-02-18 00:22:00,
2013-02-17 18:31:00,41.0,25.0,29.95,ESE,112,9.0,13.0,52,-99.99,,,-99.99,,2013-02-18 00:31:00,
2013-02-17 18:41:00,41.0,25.0,29.95,ESE,112,8.0,12.0,53,-99.99,,,-99.99,,2013-02-18 00:41:00,
2013-02-17 18:52:00,41.0,25.0,29.95,ESE,112,9.0,12.0,54,-99.99,,,-99.99,,2013-02-18 00:52:00,
2013-02-17 19:01:00,41.0,26.0,29.95,ESE,112,8.0,12.0,55,-99.99,,,-99.99,,2013-02-18 01:01:00,
2013-02-17 19:11:00,41.0,26.0,29.94,ESE,112,9.0,13.0,55,-99.99,,,-99.99,,2013-02-18 01:11:00,
2013-02-17 19:21:00,40.0,26.0,29.95,ESE,112,9.0,14.0,56,-99.99,,,-99.99,,2013-02-18 01:21:00,
2013-02-17 19:31:00,40.0,26.0,29.94,ESE,112,9.0,17.0,57,-99.99,,,-99.99,,2013-02-18 01:31:00,
2013-02-17 19:41:00,40.0,26.0,29.94,ESE,112,9.0,13.0,58,-99.99,,,-99.99,,2013-02-18 01:41:00,
2013-02-17 19:51:00,40.0,26.0,29.94,SE,135,9.0,13.0,59,-99.99,,,-99.99,,2013-02-18 01:51:00,
2013-02-17 20:01:00,39.0,27.0,29.94,ESE,112,8.0,14.0,60,-99.99,,,-99.99,,2013-02-18 02:01:00,
2013-02-17 20:11:00,39.0,27.0,29.93,ESE,112,9.0,15.0,61,-99.99,,,-99.99,,2013-02-18 02:11:00,
2013-02-17 20:21:00,39.0,27.0,29.93,SE,135,10.0,16.0,62,-99.99,,,-99.99,,2013-02-18 02:21:00,
2013-02-17 20:32:00,39.0,28.0,29.93,SE,135,9.0,13.0,64,-99.99,,,-99.99,,2013-02-18 02:32:00,
2013-02-17 20:41:00,39.0,28.0,29.92,SE,135,10.0,14.0,65,-99.99,,,-99.99,,2013-02-18 02:41:00,
2013-02-17 20:52:00,39.0,28.0,29.92,SE,135,10.0,13.0,66,-99.99,,,-99.99,,2013-02-18 02:52:00,
2013-02-17 21:01:00,39.0,29.0,29.91,SE,135,10.0,14.0,67,-99.99,,,-99.99,,2013-02-18 03:01:00,
2013-02-17 21:11:00,38.0,29.0,29.91,SE,135,10.0,13.0,68,-99.99,,,-99.99,,2013-02-18 03:11:00,
2013-02-17 21:21:00,38.0,29.0,29.91,SE,135,10.0,14.0,69,-99.99,,,-99.99,,2013-02-18 03:21:00,
2013-02-17 21:31:00,38.0,29.0,29.91,SE,135,9.0,13.0,72,-99.99,,,-99.99,,2013-02-18 03:31:00,
2013-02-17 21:42:00,38.0,29.0,29.91,SE,135,8.0,12.0,72,-99.99,,,-99.99,,2013-02-18 03:42:00,
2013-02-17 21:51:00,38.0,30.0,29.90,SE,135,8.0,11.0,73,-99.99,,,-99.99,,2013-02-18 03:51:00,
2013-02-17 22:01:00,37.0,30.0,29.90,SE,135,9.0,11.0,74,-99.99,,,-99.99,,2013-02-18 04:01:00,
2013-02-17 22:11:00,37.0,30.0,29.90,SSE,157,8.0,12.0,76,-99.99,,,-99.99,,2013-02-18 04:11:00,
2013-02-17 22:21:00,37.0,30.0,29.90,SE,135,8.0,11.0,77,-99.99,,,-99.99,,2013-02-18 04:21:00,
2013-02-17 22:32:00,37.0,31.0,29.90,SE,135,7.0,11.0,78,-99.99,,,-99.99,,2013-02-18 04:32:00,
2013-02-17 22:41:00,37.0,31.0,29.90,SE,135,8.0,11.0,79,-99.99,,,-99.99,,2013-02-18 04:41:00,
2013-02-17 22:51:00,37.0,31.0,29.89,SSE,157,8.0,10.0,79,-99.99,,,-99.99,,2013-02-18 04:51:00,
2013-02-17 23:01:00,38.0,32.0,29.89,SSE,157,8.0,11.0,79,-99.99,,,-99.99,,2013-02-18 05:01:00,
2013-02-17 23:11:00,38.0,32.0,29.89,SSE,157,9.0,12.0,77,-99.99,,,-99.99,,2013-02-18 05:11:00,
2013-02-17 23:21:00,38.0,32.0,29.89,SSE,157,8.0,11.0,78,-99.99,,,-99.99,,2013-02-18 05:21:00,
2013-02-17 23:31:00,38.0,32.0,29.88,SSE,157,8.0,11.0,79,-99.99,,,-99.99,,2013-02-18 05:31:00,
2013-02-17 23:41:00,39.0,32.0,29.88,SSE,157,8.0,10.0,78,-99.99,,,-99.99,,2013-02-18 05:41:00,
2013-02-17 23:52:00,39.0,33.0,29.88,SSE,157,8.0,13.0,78,-99.99,,,-99.99,,2013-02-18 05:52:00,